• In Hungary
  • List of Countries
  • For 7 days
  • Water Temperature
  • Satellite Maps
  • Weather Map
  • News
  • Weather Widgets
  • user-avatar
    Login

    Hourly Weather Etchmiadzin

    Today, 19 August, Sunday

    Time Temperature Precipitation Wind Pressure Humidity
    00:00 +25°C° 0.3 mm 3 mps 681 mmHg 66%
    01:00 +24°C° 0.4 mm 3 mps 681 mmHg 68%
    02:00 +24°C° 0.4 mm 3 mps 682 mmHg 70%
    03:00 +22°C° 0.4 mm 3 mps 682 mmHg 72%
    04:00 +22°C° 0.4 mm 3 mps 682 mmHg 72%
    05:00 +22°C° 0.4 mm 3 mps 682 mmHg 73%
    06:00 +23°C° 0.4 mm 2 mps 682 mmHg 73%
    07:00 +24°C° 0.2 mm 2 mps 682 mmHg 67%
    08:00 +26°C° 0.2 mm 2 mps 682 mmHg 60%
    09:00 +27°C° 0.2 mm 2 mps 683 mmHg 54%
    10:00 +28°C° 0.4 mm 2 mps 683 mmHg 50%
    11:00 +29°C° 0.4 mm 2 mps 682 mmHg 46%
    12:00 +30°C° 0.4 mm 2 mps 682 mmHg 42%
    13:00 +31°C° 0.5 mm 2 mps 682 mmHg 41%
    14:00 +31°C° 0.5 mm 3 mps 682 mmHg 40%
    15:00 +33°C° 0.5 mm 3 mps 682 mmHg 39%
    16:00 +31°C° 0.6 mm 3 mps 682 mmHg 41%
    17:00 +30°C° 0.6 mm 4 mps 682 mmHg 44%
    18:00 +29°C° 0.6 mm 4 mps 682 mmHg 46%
    19:00 +28°C° 0.3 mm 3 mps 682 mmHg 52%
    20:00 +26°C° 0.3 mm 3 mps 683 mmHg 57%
    21:00 +24°C° 0.3 mm 2 mps 683 mmHg 62%
    22:00 +24°C° 0.2 mm 2 mps 683 mmHg 64%
    23:00 +23°C° 0.2 mm 2 mps 684 mmHg 66%

    Tomorrow, 20 August, Monday

    Time Temperature Precipitation Wind Pressure Humidity
    00:00 +22°C° 0.2 mm 3 mps 684 mmHg 68%
    01:00 +23°C° 0.3 mm 2 mps 684 mmHg 69%
    02:00 +21°C° 0.3 mm 2 mps 684 mmHg 71%
    03:00 +21°C° 0.3 mm 2 mps 684 mmHg 73%
    04:00 +21°C° 0.2 mm 2 mps 684 mmHg 73%
    05:00 +21°C° 0.2 mm 2 mps 685 mmHg 74%
    06:00 +21°C° 0.2 mm 2 mps 685 mmHg 74%
    07:00 +23°C° 0.1 mm 2 mps 685 mmHg 67%
    08:00 +25°C° 0.1 mm 2 mps 686 mmHg 60%
    09:00 +26°C° 0.1 mm 2 mps 686 mmHg 53%
    10:00 +28°C° 0.1 mm 2 mps 686 mmHg 50%
    11:00 +29°C° 0.1 mm 3 mps 686 mmHg 46%
    12:00 +30°C° 0.1 mm 3 mps 686 mmHg 43%
    13:00 +30°C° 0.3 mm 3 mps 686 mmHg 41%
    14:00 +31°C° 0.3 mm 3 mps 686 mmHg 40%
    15:00 +32°C° 0.3 mm 4 mps 685 mmHg 39%
    16:00 +30°C° 0.2 mm 4 mps 685 mmHg 42%
    17:00 +30°C° 0.2 mm 4 mps 685 mmHg 45%
    18:00 +29°C° 0.2 mm 5 mps 685 mmHg 48%
    19:00 +27°C° 0.2 mm 4 mps 685 mmHg 53%
    20:00 +25°C° 0.2 mm 4 mps 686 mmHg 59%
    21:00 +24°C° 0.2 mm 3 mps 686 mmHg 64%
    22:00 +22°C° 0.1 mm 3 mps 686 mmHg 65%
    23:00 +22°C° 0.1 mm 3 mps 686 mmHg 66%

    Day after tomorrow, 21 August, Tuesday

    Time Temperature Precipitation Wind Pressure Humidity
    00:00 +21°C° 0.1 mm 3 mps 686 mmHg 67%
    01:00 +21°C° 0 mm 3 mps 686 mmHg 68%
    02:00 +20°C° 0 mm 2 mps 686 mmHg 69%
    03:00 +20°C° 0 mm 2 mps 686 mmHg 70%
    04:00 +20°C° 0 mm 2 mps 686 mmHg 70%
    05:00 +20°C° 0 mm 2 mps 686 mmHg 70%
    06:00 +20°C° 0 mm 2 mps 686 mmHg 70%
    07:00 +23°C° 0 mm 2 mps 686 mmHg 62%
    08:00 +25°C° 0 mm 2 mps 686 mmHg 53%
    09:00 +28°C° 0 mm 2 mps 686 mmHg 45%
    10:00 +29°C° 0 mm 2 mps 686 mmHg 41%
    11:00 +31°C° 0 mm 2 mps 686 mmHg 36%
    12:00 +32°C° 0 mm 2 mps 686 mmHg 32%
    13:00 +34°C° 0 mm 2 mps 685 mmHg 31%
    14:00 +34°C° 0 mm 2 mps 685 mmHg 29%
    15:00 +35°C° 0 mm 2 mps 685 mmHg 27%
    16:00 +34°C° 0.1 mm 2 mps 685 mmHg 31%
    17:00 +32°C° 0.1 mm 2 mps 684 mmHg 34%
    18:00 +32°C° 0.1 mm 1 mps 684 mmHg 38%
    19:00 +30°C° 0.1 mm 2 mps 685 mmHg 44%
    20:00 +28°C° 0.1 mm 2 mps 685 mmHg 51%
    21:00 +26°C° 0.1 mm 3 mps 685 mmHg 57%
    22:00 +25°C° 0 mm 3 mps 685 mmHg 59%
    23:00 +25°C° 0 mm 3 mps 685 mmHg 61%

    22 August, Wednesday

    Time Temperature Precipitation Wind Pressure Humidity
    00:00 +24°C° 0 mm 2 mps 685 mmHg 64%
    01:00 +24°C° 0 mm 2 mps 685 mmHg 64%
    02:00 +23°C° 0 mm 2 mps 685 mmHg 65%
    03:00 +23°C° 0 mm 2 mps 685 mmHg 66%
    04:00 +23°C° 0 mm 2 mps 685 mmHg 66%
    05:00 +21°C° 0 mm 2 mps 685 mmHg 66%
    06:00 +21°C° 0 mm 2 mps 686 mmHg 66%
    07:00 +24°C° 0 mm 2 mps 686 mmHg 59%
    08:00 +27°C° 0 mm 2 mps 686 mmHg 51%
    09:00 +29°C° 0 mm 1 mps 686 mmHg 43%
    10:00 +30°C° 0 mm 1 mps 686 mmHg 39%
    11:00 +32°C° 0 mm 1 mps 686 mmHg 36%
    12:00 +33°C° 0 mm 1 mps 686 mmHg 32%
    13:00 +34°C° 0.1 mm 2 mps 685 mmHg 31%
    14:00 +35°C° 0.1 mm 2 mps 685 mmHg 30%
    15:00 +35°C° 0.1 mm 2 mps 685 mmHg 28%
    16:00 +34°C° 0.1 mm 2 mps 685 mmHg 32%
    17:00 +34°C° 0.1 mm 3 mps 685 mmHg 35%
    18:00 +33°C° 0.1 mm 3 mps 685 mmHg 39%
    19:00 +30°C° 0.1 mm 3 mps 685 mmHg 45%
    20:00 +28°C° 0.1 mm 3 mps 686 mmHg 51%
    21:00 +26°C° 0.1 mm 3 mps 686 mmHg 58%
    22:00 +25°C° 0 mm 3 mps 686 mmHg 59%
    23:00 +25°C° 0 mm 3 mps 686 mmHg 60%

    23 August, Thursday

    Time Temperature Precipitation Wind Pressure Humidity
    00:00 +24°C° 0 mm 2 mps 686 mmHg 61%
    01:00 +24°C° 0 mm 2 mps 686 mmHg 62%
    02:00 +23°C° 0 mm 2 mps 686 mmHg 64%
    03:00 +23°C° 0 mm 2 mps 686 mmHg 65%
    04:00 +21°C° 0 mm 2 mps 686 mmHg 65%
    05:00 +21°C° 0 mm 2 mps 686 mmHg 66%
    06:00 +21°C° 0 mm 2 mps 686 mmHg 66%
    07:00 +24°C° 0 mm 2 mps 687 mmHg 58%
    08:00 +27°C° 0 mm 2 mps 687 mmHg 51%
    09:00 +29°C° 0 mm 1 mps 687 mmHg 43%
    10:00 +30°C° 0 mm 2 mps 687 mmHg 39%
    11:00 +31°C° 0 mm 2 mps 686 mmHg 35%
    12:00 +34°C° 0 mm 2 mps 686 mmHg 31%
    13:00 +34°C° 0 mm 2 mps 686 mmHg 30%
    14:00 +35°C° 0 mm 2 mps 685 mmHg 29%
    15:00 +36°C° 0 mm 2 mps 685 mmHg 28%
    16:00 +35°C° 0 mm 3 mps 685 mmHg 31%
    17:00 +34°C° 0 mm 3 mps 685 mmHg 34%
    18:00 +33°C° 0 mm 3 mps 685 mmHg 38%
    19:00 +30°C° 0 mm 3 mps 686 mmHg 44%
    20:00 +28°C° 0 mm 3 mps 686 mmHg 49%
    21:00 +26°C° 0 mm 3 mps 686 mmHg 55%
    22:00 +25°C° 0 mm 3 mps 686 mmHg 56%
    23:00 +25°C° 0 mm 3 mps 686 mmHg 57%

    24 August, Friday

    Time Temperature Precipitation Wind Pressure Humidity
    00:00 +24°C° 0 mm 2 mps 686 mmHg 58%
    01:00 +24°C° 0 mm 2 mps 686 mmHg 59%
    02:00 +23°C° 0 mm 2 mps 686 mmHg 60%
    03:00 +23°C° 0 mm 2 mps 686 mmHg 61%
    04:00 +23°C° 0 mm 2 mps 686 mmHg 61%
    05:00 +23°C° 0 mm 2 mps 686 mmHg 61%
    06:00 +21°C° 0 mm 2 mps 687 mmHg 61%
    07:00 +25°C° 0 mm 2 mps 687 mmHg 54%
    08:00 +27°C° 0 mm 2 mps 687 mmHg 47%
    09:00 +29°C° 0 mm 1 mps 687 mmHg 40%
    10:00 +31°C° 0 mm 2 mps 687 mmHg 36%
    11:00 +32°C° 0 mm 2 mps 686 mmHg 33%
    12:00 +35°C° 0 mm 3 mps 686 mmHg 30%
    13:00 +35°C° 0 mm 3 mps 686 mmHg 28%
    14:00 +36°C° 0 mm 3 mps 685 mmHg 27%
    15:00 +36°C° 0 mm 3 mps 685 mmHg 26%
    16:00 +35°C° 0 mm 3 mps 685 mmHg 29%
    17:00 +34°C° 0 mm 3 mps 685 mmHg 32%
    18:00 +33°C° 0 mm 3 mps 685 mmHg 36%
    19:00 +30°C° 0 mm 3 mps 685 mmHg 41%
    20:00 +28°C° 0 mm 3 mps 685 mmHg 46%
    21:00 +26°C° 0 mm 3 mps 686 mmHg 51%
    22:00 +26°C° 0 mm 3 mps 686 mmHg 51%
    23:00 +25°C° 0 mm 3 mps 686 mmHg 52%
    Show more